Location: Lalanga
(4.5882°N, 32.9072°E)
Time: 03:33:54
(UTC+00:00)

Cosmos 1892 - Pass Details

Date: 24 January 2020
Orbit: 503 x 526 km, 82.5° (Epoch: 16 February)

Event Time Altitude Azimuth Distance (km) Brightness Sun altitude
Rises 16:34:30 0° 155° (SSE) 2,647 6.2 -9.5°
Reaches altitude 10° 16:37:14 10° 134° (SE) 1,760 5.1 -10.2°
Maximum altitude 16:39:47 17° 93° (E) 1,375 4.3 -10.8°
Enters shadow 16:40:45 16° 74° (ENE) 1,436 4.3 -11.0°
